Theta_e
343 342 342 341 341 341 339 338 338 338 337 336 335 335 334 335 337 337 338 337 335 333 334 337 338 337 337 336 333 331 331 331 330 325 318 317 322 328 331 332 333 333 333 333 333 333 332 332 331 330 327 325 323 323 323 324 326 327 327 327 328 328
343 342 342 342 342 341 340 339 338 338 337 336 336 335 335 337 337 338 338 337 335 334 334 336 338 338 337 336 334 332 331 331 330 327 320 319 325 329 330 332 333 334 334 333 333 332 332 332 331 329 327 325 322 322 323 324 325 326 326 327 328 328
344 343 341 341 341 341 340 340 339 338 337 337 337 335 335 338 338 338 338 338 336 335 334 335 336 337 337 336 334 332 331 331 331 328 322 321 327 329 330 332 333 334 335 334 333 332 332 331 330 329 327 325 322 322 322 323 323 324 325 327 328 328
344 343 341 340 341 342 340 340 340 338 337 336 336 335 335 338 339 339 338 338 337 336 334 334 334 336 336 336 335 333 332 331 331 330 325 323 326 328 329 331 333 335 335 334 334 333 332 332 331 329 327 325 323 322 322 322 322 324 327 328 328 328
343 342 342 341 341 342 340 340 339 338 337 336 336 335 336 339 340 340 338 338 337 336 335 334 334 335 336 337 336 333 332 332 331 331 327 323 325 327 329 331 333 334 334 334 333 333 333 332 331 330 328 326 324 323 322 321 322 324 326 327 326 326
342 341 341 341 342 342 340 340 339 337 337 336 336 335 337 339 339 340 339 338 337 336 335 334 335 335 336 336 336 334 332 332 331 331 329 325 324 327 329 331 333 334 334 334 333 333 332 332 332 330 328 327 325 324 322 321 322 324 325 326 326 326
341 340 341 342 341 341 340 339 338 337 337 336 336 335 338 339 339 339 339 338 337 336 335 334 335 335 336 336 336 334 332 332 331 331 331 327 324 326 329 331 333 334 333 333 333 333 332 332 332 331 329 328 326 324 322 321 323 325 326 328 328 328
341 340 340 341 341 339 339 339 337 337 336 336 337 336 337 338 339 339 337 337 336 335 334 334 335 335 335 336 336 334 333 332 332 331 331 329 325 325 329 331 332 334 334 334 333 333 332 332 331 330 330 329 327 325 322 322 324 325 327 327 328 327
341 340 340 340 340 339 338 339 338 338 336 336 337 337 337 338 339 338 336 336 335 335 334 334 335 335 334 335 336 335 333 333 332 332 331 331 328 327 328 330 332 335 335 335 335 334 333 332 332 330 331 331 328 326 324 323 323 324 325 325 326 325
341 340 340 340 340 338 338 340 339 338 337 336 337 337 337 338 338 337 336 335 335 334 333 332 334 335 334 334 336 335 333 333 332 332 331 331 331 329 329 330 332 335 336 335 336 335 334 333 332 330 330 331 329 327 326 324 323 323 324 325 325 325
341 340 340 340 340 339 338 340 339 338 337 336 336 336 337 338 338 337 336 336 335 334 333 332 333 335 334 333 335 335 334 334 333 332 332 331 331 330 330 330 332 335 335 333 333 334 336 335 332 330 330 330 329 328 327 325 323 323 323 325 325 324
339 339 340 340 339 338 339 340 340 338 337 336 335 336 337 338 338 337 337 336 336 335 333 332 332 334 333 332 334 334 333 333 333 332 332 331 330 330 330 331 332 333 332 331 330 332 335 336 333 331 330 330 329 328 327 325 323 321 322 323 322 323
338 338 338 338 338 338 339 340 339 338 337 336 335 335 336 338 338 337 337 337 336 336 334 333 333 333 333 333 333 334 332 332 332 332 332 332 331 331 330 331 332 331 330 330 331 331 334 336 334 332 331 330 329 329 328 326 322 320 320 320 321 324
338 338 336 334 335 337 339 339 339 338 337 335 334 335 336 337 338 338 338 338 337 336 335 335 334 334 334 333 333 334 333 331 331 331 331 331 331 331 330 330 330 330 330 331 331 330 333 335 334 333 331 330 330 329 328 326 322 318 318 320 322 325
337 335 331 329 330 332 336 337 338 337 336 336 335 335 336 338 338 338 339 338 338 337 336 336 335 335 334 334 333 333 333 330 330 330 330 330 331 330 330 330 330 331 331 332 332 331 333 335 334 333 332 331 330 329 329 326 321 318 319 322 325 327
335 333 332 333 333 333 334 334 336 336 336 337 336 336 337 337 338 338 339 338 337 336 336 336 336 335 335 334 333 333 332 331 331 330 331 331 331 331 331 332 332 332 332 332 332 332 333 334 333 333 332 331 331 330 329 326 321 318 321 325 327 327
334 334 335 336 335 334 334 334 335 334 335 337 337 337 336 336 337 338 339 337 336 335 335 336 335 334 335 334 334 333 332 332 332 332 332 332 332 333 333 333 333 332 332 332 333 333 333 333 333 332 332 332 331 330 329 327 322 320 323 327 327 326
337 336 336 336 335 332 332 334 335 333 332 335 337 337 336 337 337 337 337 336 336 335 335 335 334 334 334 335 334 333 333 333 333 333 333 333 332 333 333 333 333 332 332 331 333 334 333 333 332 331 331 331 332 331 330 327 322 321 325 327 327 325
338 337 337 337 336 333 332 333 334 333 331 333 337 338 337 337 336 336 335 335 336 337 336 335 334 334 334 335 335 334 334 333 333 334 333 333 333 333 333 333 333 332 332 332 332 333 332 332 330 330 330 330 331 330 330 327 322 323 325 327 327 325
339 338 337 336 335 334 333 333 334 333 333 333 335 337 337 337 336 336 335 334 336 337 337 336 334 334 334 335 334 334 334 334 334 334 334 333 333 333 333 333 333 332 332 332 331 331 331 331 329 328 328 329 329 329 330 328 325 324 325 326 327 326
339 338 336 336 335 334 334 333 333 333 333 334 335 336 337 337 337 336 335 335 336 337 337 336 335 335 335 335 334 335 335 334 334 334 334 334 334 334 334 333 333 333 333 332 330 330 330 330 329 328 329 329 329 330 330 330 328 326 325 326 327 328
338 337 336 336 335 334 334 334 333 332 333 334 334 335 335 336 336 336 336 336 336 337 337 336 334 335 335 335 335 335 335 334 334 334 334 334 334 334 334 333 333 332 332 331 330 329 329 329 328 329 330 330 330 330 330 329 329 329 328 328 328 328
337 336 335 335 334 334 334 334 334 332 332 334 334 334 334 335 336 336 337 336 336 337 337 336 334 335 335 335 334 334 335 334 334 335 335 334 334 334 334 333 333 333 331 331 330 329 329 329 329 329 329 330 330 330 329 328 328 328 328 328 329 328
336 335 333 333 334 333 333 333 334 333 333 333 334 333 334 335 336 336 337 337 336 337 337 336 334 334 334 334 334 333 334 334 334 335 335 335 335 334 334 332 332 333 331 330 329 329 330 329 329 329 328 329 329 329 328 328 328 328 328 328 328 328
334 333 332 332 332 332 333 333 333 334 333 333 334 335 335 336 336 336 337 336 337 337 336 335 335 334 333 333 333 333 333 334 334 335 336 335 334 335 335 333 332 332 332 331 330 329 330 330 329 328 328 328 328 328 328 328 328 327 327 327 328 327
333 332 332 331 332 332 332 333 333 333 334 334 335 336 336 337 336 336 337 336 336 337 336 335 335 335 334 333 333 332 332 334 335 335 335 335 335 335 335 333 332 332 332 331 330 329 329 330 329 328 327 327 326 326 327 328 328 327 327 327 327 327
332 332 332 331 331 332 332 332 333 334 334 335 336 336 336 336 336 337 336 336 336 336 336 336 335 335 334 333 332 331 332 333 334 335 335 335 335 335 335 334 333 332 332 331 330 329 329 329 329 327 326 325 325 325 325 327 327 327 328 328 327 327
331 332 332 331 331 332 332 332 334 334 334 335 335 335 335 335 336 336 336 336 335 335 335 335 335 335 335 334 333 332 332 332 334 335 335 335 336 335 335 334 333 331 331 331 330 329 329 329 328 327 327 326 327 327 326 326 326 326 326 327 328 328
331 332 332 332 331 332 332 332 333 334 334 335 335 335 335 335 335 336 335 335 335 334 335 334 335 335 334 334 333 333 332 332 333 334 335 335 336 335 335 335 333 332 331 331 330 329 329 329 328 328 327 326 328 327 326 327 326 324 324 326 328 327
331 332 332 332 331 331 333 333 333 334 334 335 335 335 335 335 335 335 335 335 335 333 333 334 335 334 333 332 333 333 333 333 334 334 334 334 335 335 335 335 334 333 333 332 331 329 329 329 329 329 328 327 328 327 326 326 325 324 324 325 327 327
331 331 331 331 330 331 333 333 333 334 334 334 335 335 335 335 334 334 334 334 334 332 332 333 334 334 334 333 332 333 333 333 334 333 332 333 333 334 334 335 334 333 332 331 331 330 329 329 329 329 329 328 328 327 327 326 326 325 324 324 325 326
330 330 331 331 331 332 333 334 334 334 334 334 335 335 335 335 334 334 334 333 333 332 332 333 333 333 334 334 333 333 333 334 334 333 333 332 333 333 334 334 334 333 332 331 331 331 330 329 329 330 329 328 328 328 328 328 327 326 325 324 324 325
330 330 330 331 331 332 333 334 334 334 334 334 334 335 335 335 335 334 334 332 332 332 332 332 332 332 333 333 333 333 334 334 333 334 333 332 333 334 334 335 334 334 333 332 332 331 330 330 330 330 330 329 328 328 329 328 328 326 325 324 324 325
330 329 329 330 330 331 332 333 333 333 333 333 333 332 331 333 334 334 333 332 331 330 331 331 331 332 333 333 333 333 333 333 332 333 333 333 333 333 334 335 333 332 332 333 332 332 331 331 331 330 330 330 330 329 329 329 328 327 326 324 324 324
328 328 327 328 329 330 330 331 332 333 333 333 332 330 330 332 334 334 333 332 331 330 330 330 330 331 332 333 333 333 333 333 333 333 334 333 332 332 332 333 333 332 332 333 333 332 331 331 331 331 330 330 330 330 329 329 328 327 326 325 324 324
325 326 326 327 328 329 329 329 330 331 332 332 332 331 331 333 334 334 333 332 331 330 330 330 330 331 331 331 332 332 333 333 333 334 334 332 330 329 331 333 333 332 332 333 333 332 332 332 331 331 331 331 331 330 330 329 328 327 327 326 325 324
323 324 325 326 326 327 327 328 328 329 330 330 331 332 332 332 333 333 332 332 331 331 330 331 331 331 331 331 331 332 333 333 332 333 333 332 329 329 331 332 332 333 332 333 333 332 332 332 332 331 331 331 331 331 330 330 329 327 327 326 325 325
Wind_Speed
18 18 18 17 17 15 14 14 14 13 13 13 12 11 13 16 15 15 14 14 14 16 16 15 15 14 13 12 13 15 15 14 13 13 15 20 22 22 19 16 14 14 16 17 16 15 14 12 11 10 11 11 11 11 13 13 13 14 16 17 15 13
18 17 18 17 17 14 14 15 14 13 12 12 11 11 13 15 15 15 15 15 14 15 16 14 14 13 13 12 13 15 14 13 13 13 16 20 23 22 20 17 14 14 15 16 15 14 13 11 10 10 11 11 11 11 12 12 12 13 14 15 14 12
17 16 17 16 16 14 15 16 15 14 13 12 12 13 15 15 15 15 15 15 14 15 15 14 13 12 12 12 12 14 14 13 14 14 16 20 21 21 21 18 15 15 15 15 15 14 13 11 10 10 10 10 11 11 11 11 11 12 13 13 12 11
18 17 17 16 16 16 16 17 16 15 14 14 13 14 15 15 15 15 15 15 14 14 14 13 12 11 12 12 12 13 14 13 14 15 16 19 19 19 20 18 16 14 15 15 15 14 13 12 11 10 10 10 10 10 10 10 11 12 13 12 11 10
19 19 19 19 18 17 18 18 17 15 15 15 14 15 15 14 14 15 16 16 15 14 13 12 12 13 13 13 13 14 15 14 14 14 16 19 19 19 19 18 16 14 14 14 14 14 13 12 11 10 9 9 9 9 9 9 10 12 12 10 9 10
21 20 20 21 19 18 18 19 18 17 16 15 15 15 15 14 15 16 17 16 15 14 14 13 13 14 13 13 14 14 15 15 14 14 14 17 19 18 18 17 16 14 13 14 14 13 13 12 11 10 9 9 9 8 8 8 9 10 10 9 8 8
22 21 21 21 19 18 18 19 19 18 17 16 16 16 15 15 16 16 17 17 16 16 15 14 13 14 14 14 14 14 16 15 14 14 13 16 18 18 17 16 15 14 13 13 13 13 12 12 11 10 9 8 8 8 8 8 9 9 10 9 8 7
23 23 23 23 22 21 20 19 19 18 17 18 18 17 17 17 17 16 16 17 16 16 16 15 14 14 14 14 14 14 15 15 15 14 13 15 17 18 17 15 15 14 12 11 12 12 12 11 10 9 8 8 8 8 8 8 8 8 8 8 7 7
22 22 22 23 24 24 22 21 20 20 19 20 20 19 18 18 18 17 16 16 16 16 16 15 15 14 15 16 14 14 15 15 15 15 14 14 15 18 17 15 14 13 11 10 9 10 11 10 10 9 8 8 8 7 7 7 7 7 7 6 6 6
20 20 20 21 22 24 24 21 21 21 21 21 21 20 19 19 19 18 17 17 16 16 16 16 15 14 15 17 16 15 15 15 15 15 15 14 14 16 17 15 13 13 11 9 8 8 9 9 9 9 9 8 8 7 7 7 7 6 6 6 6 7
20 20 20 20 21 24 24 22 22 23 22 22 22 20 19 19 21 20 18 18 17 17 17 15 14 14 15 16 17 16 15 16 15 15 15 14 13 14 16 15 12 12 11 9 7 7 7 8 9 10 10 9 8 8 7 7 7 6 6 6 6 6
22 22 22 23 23 23 23 23 23 23 23 23 22 21 20 21 22 21 19 18 17 17 17 15 13 14 14 15 16 16 16 18 17 16 16 14 13 13 14 14 12 11 9 8 7 7 7 8 9 11 11 10 9 9 8 7 7 7 7 7 6 7
25 25 24 24 24 23 23 24 23 23 24 23 23 21 21 22 22 21 19 18 18 19 17 15 14 14 14 15 16 16 16 18 18 17 16 15 14 13 13 13 11 10 9 8 7 8 10 10 10 11 11 11 10 9 8 8 7 8 8 8 7 8
27 27 26 26 26 25 25 26 25 25 25 24 23 21 21 21 21 21 20 19 19 20 18 16 14 14 15 15 16 16 15 16 17 17 16 16 15 14 14 12 11 10 8 8 8 11 13 12 12 12 12 12 11 10 9 8 8 8 9 8 8 8
29 30 32 32 32 31 30 28 27 26 26 25 23 21 20 20 20 21 20 20 20 20 19 17 15 15 16 16 17 17 15 15 16 17 16 15 14 14 13 11 10 10 10 8 9 13 15 14 13 13 13 13 12 12 10 9 9 9 9 9 9 8
32 33 35 34 33 33 32 31 30 28 26 24 22 20 20 19 20 21 20 20 20 20 20 18 16 17 17 17 17 17 16 15 16 16 15 14 14 14 12 11 10 11 12 10 11 14 15 15 14 13 13 13 13 13 11 10 10 11 10 10 9 8
33 34 34 33 31 30 30 30 30 28 25 23 22 20 19 20 20 21 20 20 20 20 20 19 18 18 18 18 18 18 17 16 15 15 15 15 14 13 12 12 12 13 13 12 13 15 16 15 14 13 13 14 14 13 13 13 11 12 12 11 9 8
33 33 33 32 31 30 29 27 26 25 24 22 21 20 19 20 20 21 21 20 20 22 21 20 20 20 19 19 19 19 18 16 16 16 16 16 15 14 13 13 15 15 13 13 14 16 16 15 14 13 13 13 14 14 14 14 13 13 13 11 9 8
32 33 33 30 29 28 27 26 24 23 23 21 20 20 21 22 22 23 22 21 22 24 23 22 21 21 20 20 20 19 18 17 17 17 17 17 17 17 15 16 16 16 15 13 14 16 15 15 13 11 11 11 12 13 12 13 14 14 14 11 9 9
33 33 31 29 27 26 26 25 25 23 21 21 22 22 23 24 23 23 22 21 23 25 24 23 22 22 22 21 21 19 18 18 18 18 19 19 20 19 17 18 18 17 16 14 13 15 15 15 13 9 8 8 8 10 10 11 13 14 12 10 9 10
33 32 31 30 28 27 26 25 24 24 22 21 23 25 25 26 24 23 22 22 23 24 24 24 24 24 24 23 21 19 19 19 20 20 19 20 20 19 18 19 18 17 17 15 13 13 15 16 13 10 8 7 7 7 8 9 10 11 11 10 10 11
32 31 32 32 30 28 28 25 23 23 22 21 23 27 27 26 25 23 23 22 24 24 24 25 26 26 26 25 22 20 19 20 21 21 20 20 20 20 20 21 20 18 16 15 14 15 17 16 11 11 10 8 6 5 6 6 7 8 9 10 10 9
31 30 30 31 30 29 27 25 22 20 19 18 21 26 27 26 25 23 22 22 24 24 25 26 27 27 28 27 24 21 20 21 22 22 22 22 21 21 21 21 21 19 16 14 14 16 19 16 13 14 11 6 4 3 4 3 4 6 7 8 8 6
30 27 26 27 27 27 26 23 23 20 18 18 19 21 23 24 25 24 23 24 24 24 24 26 27 27 28 29 26 23 21 22 23 23 23 23 22 21 21 21 21 21 18 16 15 17 20 17 16 17 9 3 2 2 1 3 4 3 3 4 5 6
24 21 19 20 21 22 22 22 21 18 17 18 17 19 22 24 25 26 26 25 24 23 23 25 28 28 28 30 28 25 23 23 23 24 24 22 21 21 21 22 22 22 21 19 17 19 20 17 17 18 11 5 4 1 2 4 5 3 2 4 4 4
15 14 13 14 15 16 17 18 18 17 17 17 15 17 21 23 24 25 25 24 24 23 24 26 28 28 28 29 29 27 25 25 25 25 25 23 21 21 22 23 23 22 22 22 20 20 21 19 19 18 12 8 5 2 5 8 5 1 3 5 4 5
14 13 13 13 13 14 15 14 14 16 15 14 13 12 13 16 20 23 23 23 24 24 25 27 27 28 27 28 28 27 26 26 26 26 26 24 22 21 22 23 23 23 22 23 22 22 22 21 21 18 13 10 5 4 10 12 6 4 4 4 5 7
15 15 14 13 12 14 14 12 12 12 12 11 10 9 8 10 15 19 22 23 24 25 26 27 27 26 27 27 27 26 26 26 27 28 27 25 24 22 23 23 23 23 23 24 24 23 23 23 24 21 16 12 5 5 12 12 10 8 5 3 5 6
13 16 18 17 13 12 12 13 13 12 11 9 8 7 6 7 11 16 21 23 24 26 26 27 26 25 27 27 26 25 25 26 26 27 27 27 26 24 24 24 24 24 25 26 25 23 24 26 26 24 21 15 7 9 12 9 10 11 6 5 5 5
9 13 19 19 16 13 12 12 14 13 12 10 8 7 6 7 10 15 19 22 24 25 24 24 24 24 25 25 24 24 25 26 26 27 27 28 27 26 25 25 25 25 25 26 26 25 24 24 26 25 23 19 13 14 12 7 10 11 6 4 4 6
8 10 14 15 14 15 14 13 13 12 11 11 9 10 9 8 10 13 17 20 21 21 22 23 25 24 24 23 23 24 25 26 27 26 26 27 28 28 26 25 25 26 25 26 26 25 24 22 23 23 23 22 19 17 14 10 14 16 10 6 5 7
7 9 10 10 10 12 13 14 15 13 12 12 12 13 12 12 12 13 16 18 19 19 21 23 24 25 25 24 24 25 25 27 28 27 25 26 27 28 27 26 27 26 25 26 26 25 24 22 21 22 22 22 21 19 16 12 14 18 16 13 11 8
6 8 10 11 10 9 10 13 15 15 13 12 13 14 13 13 14 14 15 16 16 17 21 22 23 26 26 25 25 25 26 27 26 25 24 24 26 27 27 27 28 28 25 26 26 25 24 23 21 20 20 22 21 19 16 13 12 15 17 15 13 10
7 6 7 9 11 11 11 12 14 15 15 14 15 16 16 16 16 16 17 17 17 17 21 24 24 25 27 27 26 26 26 25 22 21 22 22 24 27 27 27 28 28 25 24 24 24 24 23 21 19 19 21 21 20 17 14 13 14 16 16 15 14
14 12 9 7 8 9 11 13 14 14 15 16 17 17 17 18 19 21 21 20 20 18 20 24 24 23 25 27 27 25 25 24 22 22 23 23 25 27 27 26 26 25 24 22 22 24 23 22 21 20 19 19 19 19 18 15 15 14 16 18 17 18
16 14 11 9 6 7 9 11 12 13 14 16 17 18 20 22 23 25 24 20 18 16 16 20 24 24 24 24 22 23 24 24 23 24 25 24 24 26 27 26 25 24 24 22 22 23 22 21 21 19 19 18 18 19 18 16 15 14 15 17 17 18
17 14 11 10 9 8 10 13 13 13 15 17 17 20 23 24 24 25 24 18 15 15 14 17 23 25 25 23 21 22 24 22 22 24 25 24 24 24 24 24 24 24 24 23 22 22 21 20 20 18 18 18 18 19 18 17 16 14 14 16 17 18
Wind_Direction
170 171 170 167 166 170 173 169 168 166 160 161 159 159 158 153 152 151 152 153 151 149 151 155 151 151 151 143 141 142 142 141 138 138 144 148 146 141 135 133 131 125 119 118 120 123 124 121 117 110 102 104 113 121 124 123 122 119 114 109 107 105
170 172 172 168 167 167 171 171 168 165 161 165 164 161 162 160 161 161 160 160 158 156 157 159 155 156 153 146 147 146 146 144 141 139 145 149 146 141 137 137 135 125 119 120 124 126 127 125 120 113 103 104 112 120 125 123 122 122 119 115 114 114
168 170 173 170 169 169 173 172 170 168 165 170 170 168 169 168 170 171 169 166 165 165 164 164 164 162 153 150 153 151 149 147 145 142 145 151 149 143 140 141 136 125 120 123 128 132 136 136 128 118 109 108 113 119 123 121 120 124 123 118 117 118
169 172 174 172 172 175 176 175 173 172 172 174 174 174 175 175 178 179 178 175 174 172 168 167 168 169 161 157 158 158 156 151 151 148 148 154 153 147 143 142 138 128 123 128 134 138 142 142 134 125 116 112 113 118 121 119 118 120 121 119 121 123
175 177 177 177 177 179 178 177 176 176 178 177 176 177 180 181 180 183 185 184 183 178 173 172 171 171 169 165 164 165 164 159 157 154 152 158 159 152 147 144 140 133 126 128 134 139 142 140 136 132 122 117 116 118 121 119 118 119 122 127 130 129
179 179 180 180 178 180 180 179 179 179 179 176 178 181 183 182 179 185 188 188 189 186 182 180 175 173 175 174 171 171 169 164 161 158 155 160 163 156 149 146 142 137 128 124 128 134 140 138 136 136 129 125 122 120 123 123 121 121 123 123 120 119
182 180 180 179 177 180 182 184 184 181 181 178 181 185 187 185 183 188 188 190 194 192 190 185 180 179 181 181 178 176 173 168 163 162 160 162 167 161 153 149 143 139 132 125 125 132 139 140 138 138 134 131 128 125 127 129 127 124 122 120 118 123
187 183 181 180 180 182 185 191 188 183 186 183 183 188 192 191 189 190 187 192 196 196 197 191 186 184 188 188 182 179 175 172 167 166 166 165 169 167 160 154 146 140 137 132 130 134 139 141 144 143 139 137 136 131 131 134 132 128 130 134 139 141
191 187 184 184 184 185 187 193 188 184 188 186 186 190 197 196 192 192 190 195 199 200 203 198 192 189 193 193 186 181 178 177 173 172 172 169 169 170 169 163 151 144 143 141 137 139 141 143 150 152 150 147 144 138 136 141 142 141 145 149 149 139
193 191 190 188 187 189 191 193 191 189 190 188 189 194 199 199 196 197 197 198 201 204 209 207 200 194 196 196 189 184 182 182 181 179 178 174 170 172 175 172 158 150 150 148 144 147 148 148 155 163 164 159 152 147 145 148 155 158 154 152 150 142
196 195 194 192 193 197 196 195 196 195 193 192 192 194 199 203 202 201 202 202 203 207 212 212 208 203 200 198 193 188 189 189 187 185 183 179 175 174 178 178 165 158 158 156 151 155 161 159 163 172 176 170 164 160 156 157 164 168 163 158 158 154
197 200 200 199 201 205 201 199 201 198 195 197 195 194 198 205 205 204 206 207 208 211 213 213 211 209 206 202 197 194 195 192 190 189 186 185 186 181 182 182 173 166 168 169 166 168 175 175 174 180 183 180 177 173 166 166 171 172 170 167 162 158
199 202 204 204 207 208 205 203 205 202 200 202 199 197 200 204 205 206 209 210 212 214 215 215 213 213 212 207 201 198 197 194 191 189 188 190 192 192 190 188 183 179 181 185 189 185 182 183 186 188 189 189 186 182 176 172 176 177 175 172 165 161
200 203 206 207 209 208 206 206 207 205 205 207 204 199 200 203 205 208 211 213 215 216 218 218 215 216 215 210 205 200 196 192 191 189 189 192 194 198 199 196 193 189 191 195 198 191 185 186 190 191 191 194 194 190 184 177 179 179 174 171 168 165
204 207 209 210 209 207 206 206 207 207 207 209 207 202 199 201 208 213 215 217 219 219 220 221 218 219 218 214 206 199 193 187 185 186 188 190 192 197 201 201 197 192 192 192 190 184 184 189 191 192 193 195 198 195 187 182 183 179 172 172 173 168
209 211 212 212 210 207 205 205 205 205 206 207 207 206 201 202 210 215 216 220 223 222 222 223 220 220 221 218 208 199 192 184 182 184 188 192 194 196 199 200 198 197 193 185 181 179 183 190 189 191 194 195 199 197 189 186 186 180 175 178 180 172
212 213 214 214 214 212 210 208 206 203 202 203 207 208 208 209 212 215 215 217 224 226 225 224 221 220 222 219 210 200 194 190 188 189 194 197 200 201 202 201 195 195 197 190 182 177 179 186 190 191 192 196 199 197 193 191 189 183 181 184 185 179
214 216 216 216 217 216 214 213 211 207 203 203 204 210 215 215 215 217 216 213 221 229 228 226 223 221 222 218 211 204 202 199 197 199 201 202 205 205 204 203 194 189 196 198 190 183 180 181 185 188 189 194 197 198 197 192 190 187 187 189 188 182
217 218 218 218 219 216 214 214 214 212 208 204 201 208 217 219 217 218 217 213 219 226 228 228 225 222 222 217 211 209 209 206 205 206 203 203 206 207 203 199 196 191 190 197 198 189 181 175 172 174 181 186 194 201 198 189 191 194 193 194 193 188
221 220 217 218 218 216 213 212 213 212 208 203 200 206 216 220 220 220 218 216 217 221 225 227 227 224 222 218 212 213 215 211 209 208 204 205 206 206 203 196 196 194 186 185 189 186 180 173 160 152 165 171 185 201 200 194 196 199 200 202 205 200
224 221 218 217 216 213 213 212 212 212 208 201 199 205 214 219 221 223 223 221 219 218 220 224 227 225 223 221 216 216 218 213 209 208 207 208 206 204 202 197 196 194 190 181 173 177 180 170 150 140 148 146 156 181 194 202 205 208 209 207 218 214
226 223 221 220 217 213 214 213 214 218 216 204 199 205 213 218 222 225 224 222 221 219 216 220 224 224 223 222 219 218 218 212 209 208 209 208 204 201 198 198 195 190 191 184 174 176 176 166 149 146 146 132 135 151 162 186 205 215 214 209 226 231
228 226 224 222 219 217 217 217 218 225 229 217 208 212 216 218 221 224 224 222 223 221 217 218 221 223 223 222 221 220 218 215 211 209 208 205 201 202 201 200 199 194 187 173 170 179 178 172 159 148 141 134 150 144 135 168 199 212 216 211 226 238
231 231 229 225 223 222 221 222 221 228 239 231 219 218 220 222 222 223 223 222 224 223 219 218 220 223 223 222 221 220 220 218 214 211 210 208 206 209 208 200 199 199 191 171 161 175 183 184 173 158 143 115 131 134 158 179 164 166 204 206 225 235
240 242 240 234 230 228 226 226 226 230 237 231 220 213 212 217 219 221 223 224 226 226 221 221 222 224 224 224 223 221 221 220 217 214 215 217 216 217 214 205 201 202 200 190 175 175 185 195 192 179 164 140 133 173 210 169 149 135 182 190 218 234
266 267 265 254 245 243 242 237 231 228 226 220 212 207 207 211 213 216 222 226 229 227 223 223 224 225 226 227 225 223 221 220 219 218 219 223 222 218 214 209 207 207 206 205 191 180 187 199 201 194 184 174 167 179 167 155 155 158 166 182 206 213
296 289 282 279 276 273 269 262 245 229 221 215 214 222 224 221 216 215 220 226 229 226 222 222 223 225 227 227 227 225 222 221 220 221 222 223 222 218 214 212 212 211 210 207 195 185 188 193 197 201 199 184 158 145 163 160 163 155 149 174 184 187
291 280 273 276 287 289 277 271 264 244 232 227 230 247 254 237 222 218 221 223 225 225 221 220 221 223 225 225 226 225 223 222 221 222 223 223 221 219 217 216 215 213 211 208 202 195 192 190 194 200 198 187 164 159 174 176 176 161 141 161 167 177
284 271 263 256 263 285 278 265 268 265 257 254 253 258 263 245 229 223 222 222 223 224 220 219 221 223 223 223 224 225 224 223 223 222 222 222 221 221 219 218 217 214 212 211 209 205 199 196 198 200 196 194 182 166 172 177 177 162 138 155 169 180
313 282 271 263 260 274 279 262 257 261 260 259 258 256 254 239 229 226 223 221 222 222 219 218 222 225 226 225 225 226 226 224 224 224 223 222 221 221 220 220 220 217 214 215 213 209 207 206 206 204 199 196 181 164 162 158 171 168 147 151 173 184
339 310 292 286 277 275 276 261 251 256 255 252 253 248 241 231 225 223 223 223 222 221 220 220 223 227 228 229 228 227 227 226 225 224 224 223 222 222 221 220 220 219 217 218 217 212 211 213 213 209 205 203 196 186 183 179 181 178 169 161 162 175
317 317 311 307 296 287 280 264 256 258 255 251 250 245 237 233 233 231 230 228 223 222 224 223 225 228 226 225 226 227 227 227 226 226 225 224 223 224 223 220 219 221 221 220 220 217 214 215 216 213 209 210 210 209 208 205 196 191 190 184 171 167
296 301 307 304 298 298 290 271 260 259 261 258 251 246 242 240 242 242 241 238 231 232 232 226 223 226 226 223 222 225 228 229 227 226 226 224 225 226 224 221 220 221 220 219 221 220 218 219 221 221 218 214 214 217 218 223 218 205 199 191 174 160
349 330 319 304 292 290 292 284 272 266 268 266 258 255 253 250 247 245 245 247 245 243 243 238 229 225 226 223 221 221 225 231 231 229 230 227 226 228 227 223 223 222 218 219 222 221 220 222 224 225 224 220 219 222 222 228 230 214 201 195 182 163
8 1 355 342 306 290 289 285 279 273 267 264 260 255 253 251 248 244 241 239 237 236 244 251 246 235 230 226 223 221 222 228 233 235 236 233 228 229 229 226 226 226 222 219 220 221 220 221 224 225 226 225 226 226 223 227 231 224 212 208 200 181
14 10 3 352 316 289 285 278 275 272 265 264 263 255 250 250 250 250 245 236 233 234 245 259 257 249 242 233 228 227 227 226 229 234 237 234 230 229 228 227 226 226 223 218 218 220 219 220 224 227 229 229 229 226 225 227 230 229 220 216 213 199
10 9 358 345 325 302 287 278 277 273 264 259 259 256 252 251 253 255 253 247 244 239 240 255 259 255 249 239 232 234 233 227 226 231 234 231 228 227 228 230 228 224 220 219 219 219 219 221 224 228 230 230 229 227 226 228 230 229 221 217 216 211